DMSP 5D-2 F13 DEB, 40465

Orbit data source: Space-Track

DMSP 5D-2 F13 DEB, 40465 is space debris in SSO originally from a launch on Fri, 24 Mar 1995 UTC launched from the Air Force Western Test Range (AFWTR). Debris objects in space refer to the collection of defunct objects orbiting the Earth. Examples of debris include non-operational satellites, rocket bodies, and fragments generated from explosions, collisions, or faulty payload assembly.

Loading next visibility...
Identifier
40465, 1995-015BH
Orbit
SSO
Country
Flag of USUS
Related business
Manufacturer
Unknown
Mission
Spacecraft
Bus & Motor
Unknown
Mass
Unknown
Launch date (UTC)
1995-03-24 (31 years ago)
Launch vehicle
Unknown
Launch site
Air Force Western Test Range (AFWTR)
Object type
Payload
Rocket body
Debris
Shape & HBR
Unknown shape, 0.1 m
Radar Cross Section
Small (<0.1 m²)

Expand to show TLE details & history
Last TLE update: 18 hours ago

TLE from 18 hours ago
0 DMSP 5D-2 F13 DEB
1 40465U 95015BH  25286.99661023  .00005476  00000-0  24133-2 0  9995
2 40465  98.9808 304.9186 0040448  65.0563 295.4809 14.23351729545232
Epoch: 2025-10-13T23:55Z
TLE epoch observation values (Epoch: 2025-10-13T23:55:07.123Z)
Latitude
-0.00004°
Longitude
-76.65245°
Altitude
804.529 km
Speed
7.458 km/s
True Right ascension
20h 19m 40s
True Declination
0° 00' 00"
Sunlit
Object was in daylight at epoch
Visualization orbit readout
Latitude
Unknown
Longitude
Unknown
Altitude
Unknown
Speed
Unknown
Apparent Right ascension
Unknown
Apparent Declination
Unknown
Sunlit
N/A
Visualization observer readout
Local Sidereal Time
12:11:51
Azimuth
Unknown
Elevation
Unknown
Doppler factor
Unknown
Orbital elements
Apogee altitude
840.286 km
Perigee altitude
782.128 km
Semi-major axis
7,189.344 km
Eccentricity
0.00404
Inclination
98.9808°
RAAN
304.9186°
Arg. of periapsis
65.0563°
True anomaly
295.06158°
Mean anomaly
295.4809°
Eccentric anomaly
295.27133°
Mean motion
3.56049 °/min
Orbital period
101.11 mins
BSTAR
0.0024133

Documentation

Showing up to 5 results
|